OK3MS-5 Weather Reports


Display with metric or nautical units.
time (UTC)temp
F
wind
direction
speed
MPH
gust
MPH
rain 1hr
in
rain 24hr
in
rain mn
in
humidity
%
barometer
mb
20260503232002 59 60 2.0 4.0 0.00 0.00 0.00 53 1011.4
20260503231505 59 78 0.0 4.0 0.00 0.00 0.00 53 1011.6
20260503231006 59 64 1.0 7.0 0.00 0.00 0.00 52 1011.4
20260503230503 59 72 0.0 5.0 0.00 0.00 0.00 53 1011.6
20260503230008 60 108 0.0 6.0 0.00 0.00 0.00 52 1011.6
20260503225503 60 69 1.0 8.0 0.00 0.00 0.00 52 1011.5
20260503225007 60 105 0.0 12.0 0.00 0.00 0.00 51 1011.4
20260503224505 60 114 2.0 13.0 0.00 0.00 0.00 51 1011.5
20260503224009 60 92 1.0 8.0 0.00 0.00 0.00 51 1011.5
20260503223504 60 90 2.0 5.0 0.00 0.00 0.00 51 1011.4
20260503223005 60 114 1.0 9.0 0.00 0.00 0.00 51 1011.5
20260503222507 61 114 5.0 7.0 0.00 0.00 0.00 51 1011.6
20260503222008 61 31 2.0 8.0 0.00 0.00 0.00 51 1011.4
20260503221506 61 104 2.0 12.0 0.00 0.00 0.00 50 1011.5
20260503221009 61 96 5.0 5.0 0.00 0.00 0.00 50 1011.5
20260503220505 61 120 5.0 10.0 0.00 0.00 0.00 49 1011.6
20260503220015 61 133 5.0 9.0 0.00 0.00 0.00 50 1011.6
20260503215503 61 126 4.0 9.0 0.00 0.00 0.00 51 1011.6
20260503215007 61 64 1.0 9.0 0.00 0.00 0.00 50 1011.7
20260503214504 61 114 0.0 9.0 0.00 0.00 0.00 50 1011.6
20260503214007 61 48 9.0 11.0 0.00 0.00 0.00 49 1011.6
20260503213502 62 102 5.0 7.0 0.00 0.00 0.00 49 1011.5
20260503213004 62 93 2.0 9.0 0.00 0.00 0.00 49 1011.6
20260503212002 62 66 3.0 10.0 0.00 0.00 0.00 49 1011.7
20260503211003 62 114 3.0 9.0 0.00 0.00 0.00 49 1011.7
20260503210504 62 78 0.0 6.0 0.00 0.00 0.00 49 1011.8
20260503210005 62 121 2.0 6.0 0.00 0.00 0.00 49 1011.9
20260503205504 62 76 3.0 9.0 0.00 0.00 0.00 48 1011.9
20260503205003 62 127 1.0 12.0 0.00 0.00 0.00 48 1011.9
20260503204510 62 102 5.0 10.0 0.00 0.00 0.00 48 1012.1
20260503204003 63 64 2.0 9.0 0.00 0.00 0.00 48 1011.9
20260503203504 63 120 2.0 8.0 0.00 0.00 0.00 47 1012.0
20260503203009 63 96 7.0 8.0 0.00 0.00 0.00 47 1012.0
20260503202502 63 116 2.0 9.0 0.00 0.00 0.00 47 1012.0
20260503202003 63 64 2.0 9.0 0.00 0.00 0.00 47 1011.8
20260503201504 63 108 8.0 14.0 0.00 0.00 0.00 46 1012.1
20260503201003 63 105 6.0 12.0 0.00 0.00 0.00 47 1012.0
20260503200503 63 82 2.0 2.0 0.00 0.00 0.00 47 1012.0
20260503200003 64 104 1.0 3.0 0.00 0.00 0.00 47 1012.0
20260503195509 64 114 0.0 2.0 0.00 0.00 0.00 47 1012.0
20260503195005 64 84 8.0 8.0 0.00 0.00 0.00 46 1012.0
20260503194504 64 128 6.0 7.0 0.00 0.00 0.00 47 1012.0
20260503194008 64 72 3.0 8.0 0.00 0.00 0.00 46 1012.0
20260503193505 64 90 2.0 2.0 0.00 0.00 0.00 47 1012.0
20260503193010 64 121 9.0 9.0 0.00 0.00 0.00 46 1012.0
20260503192503 64 78 2.0 2.0 0.00 0.00 0.00 46 1012.1
20260503192007 64 54 0.0 0.0 0.00 0.00 0.00 47 1012.0
20260503191504 64 54 0.0 2.0 0.00 0.00 0.00 46 1011.8
20260503191003 64 156 0.0 1.0 0.00 0.00 0.00 46 1012.0
20260503190503 65 156 0.0 1.0 0.00 0.00 0.00 46 1011.9
20260503190004 65 156 6.0 7.0 0.00 0.00 0.00 45 1011.7
20260503185509 65 96 0.0 4.0 0.00 0.00 0.00 46 1011.7
20260503185003 65 84 4.0 8.0 0.00 0.00 0.00 45 1011.7
20260503184506 66 102 0.0 9.0 0.00 0.00 0.00 45 1011.6
20260503184003 66 111 2.0 6.0 0.00 0.00 0.00 44 1011.4
20260503183507 66 122 3.0 10.0 0.00 0.00 0.00 44 1011.5
20260503183003 67 138 8.0 10.0 0.00 0.00 0.00 43 1011.4
20260503182505 66 110 0.0 3.0 0.00 0.00 0.00 43 1011.3
20260503182006 67 94 0.0 4.0 0.00 0.00 0.00 44 1011.1
20260503181504 67 132 0.0 8.0 0.00 0.00 0.00 43 1011.0
20260503181004 68 109 0.0 10.0 0.00 0.00 0.00 42 1010.9
20260503180503 68 42 6.0 12.0 0.00 0.00 0.00 43 1010.9
20260503180002 68 76 2.0 2.0 0.00 0.00 0.00 42 1010.9
20260503175503 68 120 0.0 5.0 0.00 0.00 0.00 42 1011.0
20260503175004 69 122 6.0 8.0 0.00 0.00 0.00 41 1010.8
20260503174505 69 138 4.0 5.0 0.00 0.00 0.00 41 1010.8
20260503174008 70 88 0.0 8.0 0.00 0.00 0.00 40 1010.8
20260503173503 70 162 2.0 9.0 0.00 0.00 0.00 40 1010.8
20260503173005 70 96 4.0 6.0 0.00 0.00 0.00 40 1010.9
20260503172504 71 103 6.0 8.0 0.00 0.00 0.00 39 1010.7
20260503172004 71 132 2.0 11.0 0.00 0.00 0.00 39 1010.6
20260503171502 72 71 2.0 9.0 0.00 0.00 0.00 38 1010.7
20260503171003 72 191 1.0 7.0 0.00 0.00 0.00 38 1010.6
20260503170504 72 132 6.0 9.0 0.00 0.00 0.00 38 1010.6
20260503151006 76 139 7.0 11.0 0.00 0.00 0.00 28 1010.6
20260503150503 76 113 5.0 13.0 0.00 0.00 0.00 29 1010.6
20260503131003 76 182 7.0 11.0 0.00 0.00 0.00 29 1012.0
20260503130504 76 150 7.0 8.0 0.00 0.00 0.00 32 1012.0
20260503110505 72 162 4.0 12.0 0.00 0.00 0.00 37 1013.6
20260503090503 67 132 2.0 9.0 0.00 0.00 0.00 43 1015.3
20260503081503 66 122 9.0 9.0 0.00 0.00 0.00 44 1015.6
20260503081003 65 49 3.0 12.0 0.00 0.00 0.00 44 1015.8
20260503080504 65 97 4.0 5.0 0.00 0.00 0.00 45 1015.8
20260503072504 63 120 5.0 12.0 0.00 0.00 0.00 46 1016.0
20260503072004 63 100 6.0 9.0 0.00 0.00 0.00 47 1016.0
20260503071504 62 120 9.0 9.0 0.00 0.00 0.00 47 1016.1
20260503071003 62 102 1.0 7.0 0.00 0.00 0.00 47 1016.1
20260503070505 62 60 2.0 9.0 0.00 0.00 0.00 47 1016.2
20260503055004 56 42 1.0 2.0 0.00 0.00 0.00 55 1016.8
20260503054503 56 38 0.0 0.0 0.00 0.00 0.00 58 1016.8
20260503054006 55 38 0.0 0.0 0.00 0.00 0.00 60 1016.8
20260503053506 53 38 0.0 0.0 0.00 0.00 0.00 63 1017.0
20260503053004 52 38 0.0 2.0 0.00 0.00 0.00 65 1017.1
20260503052504 52 38 1.0 2.0 0.00 0.00 0.00 70 1017.1
20260503052009 51 38 2.0 3.0 0.00 0.00 0.00 70 1017.2
20260503051503 51 38 1.0 2.0 0.00 0.00 0.00 68 1017.2
20260503051003 50 38 1.0 1.0 0.00 0.00 0.00 69 1017.2
20260503050504 49 38 0.0 0.0 0.00 0.00 0.00 71 1017.5
20260503050011 48 38 0.0 1.0 0.00 0.00 0.00 71 1017.5
20260503045504 48 38 0.0 0.0 0.00 0.00 0.00 72 1017.5
20260503045009 47 38 1.0 2.0 0.00 0.00 0.00 71 1017.6
20260503044503 46 38 1.0 3.0 0.00 0.00 0.00 72 1017.8
20260503044003 45 38 2.0 2.0 0.00 0.00 0.00 74 1017.8
20260503043504 44 38 0.0 0.0 0.00 0.00 0.00 75 1017.9
20260503043009 44 38 0.0 0.0 0.00 0.00 0.00 80 1018.1
20260503042504 43 38 0.0 0.0 0.00 0.00 0.00 81 1018.1
20260503042002 44 38 0.0 0.0 0.00 0.00 0.00 80 1018.1
20260503041504 43 38 0.0 0.0 0.00 0.00 0.00 78 1018.0
20260503041002 43 38 0.0 0.0 0.00 0.00 0.00 77 1018.2
20260503040502 42 38 0.0 0.0 0.00 0.00 0.00 78 1018.1
20260503040005 42 38 0.0 0.0 0.00 0.00 0.00 79 1018.1
20260503035504 42 38 0.0 0.0 0.00 0.00 0.00 78 1018.2
20260503035004 43 38 0.0 0.0 0.00 0.00 0.00 82 1018.2
20260503034508 42 38 0.0 0.0 0.00 0.00 0.00 78 1018.2
20260503034004 43 42 0.0 0.0 0.00 0.00 0.00 79 1018.1
20260503033507 43 42 0.0 0.0 0.00 0.00 0.00 79 1017.9
20260503033003 43 38 0.0 0.0 0.00 0.00 0.00 82 1018.0
20260503032509 43 38 0.0 0.0 0.00 0.00 0.00 81 1018.1
20260503032005 43 38 0.0 0.0 0.00 0.00 0.00 80 1018.0
20260503031508 43 42 0.0 0.0 0.00 0.00 0.00 78 1018.0
20260503031004 42 38 0.0 1.0 0.00 0.00 0.00 81 1018.1
20260503030507 43 38 1.0 2.0 0.00 0.00 0.00 79 1018.1
20260503030003 43 38 0.0 2.0 0.00 0.00 0.00 80 1017.9
20260503025509 44 38 0.0 1.0 0.00 0.00 0.00 79 1018.0
20260503025003 44 38 1.0 2.0 0.00 0.00 0.00 76 1018.1
20260503024508 44 38 1.0 2.0 0.00 0.00 0.00 76 1017.9
20260503024003 44 38 1.0 2.0 0.00 0.00 0.00 75 1017.9
20260503023503 44 38 0.0 3.0 0.00 0.00 0.00 74 1018.0
20260503023003 44 42 1.0 4.0 0.00 0.00 0.00 74 1018.0
20260503022509 44 72 2.0 2.0 0.00 0.00 0.00 74 1018.1
20260503022005 44 96 0.0 2.0 0.00 0.00 0.00 75 1018.1
20260503021004 45 102 0.0 1.0 0.00 0.00 0.00 76 1018.2
20260503020506 45 102 0.0 0.0 0.00 0.00 0.00 74 1018.2
20260503020012 45 102 0.0 0.0 0.00 0.00 0.00 75 1018.4
20260503015504 45 102 0.0 1.0 0.00 0.00 0.00 75 1018.3
20260503015008 46 102 0.0 0.0 0.00 0.00 0.00 74 1018.3
20260503014503 46 102 1.0 2.0 0.00 0.00 0.00 74 1018.3
20260503014009 46 102 1.0 3.0 0.00 0.00 0.00 73 1018.2
20260503013502 46 102 1.0 2.0 0.00 0.00 0.00 72 1018.2
20260503013009 46 102 1.0 1.0 0.00 0.00 0.00 72 1018.4
20260503012503 46 102 0.0 0.0 0.00 0.00 0.00 74 1018.4
20260503012010 46 102 0.0 0.0 0.00 0.00 0.00 73 1018.2
20260503011505 46 102 1.0 1.0 0.00 0.00 0.00 74 1018.3
20260503011003 46 102 0.0 0.0 0.00 0.00 0.00 74 1018.3
20260503010504 46 102 0.0 0.0 0.00 0.00 0.00 72 1018.4
20260503010004 46 102 0.0 0.0 0.00 0.00 0.00 73 1018.3
20260503005510 47 102 0.0 0.0 0.00 0.00 0.00 73 1018.4
20260503005003 47 102 0.0 0.0 0.00 0.00 0.00 72 1018.3
20260503004508 47 102 0.0 0.0 0.00 0.00 0.00 69 1018.3
20260503004003 47 102 0.0 0.0 0.00 0.00 0.00 71 1018.3
20260503003503 47 102 0.0 1.0 0.00 0.00 0.00 71 1018.3
20260503003003 47 102 1.0 1.0 0.00 0.00 0.00 70 1018.3
20260503002502 47 102 0.0 0.0 0.00 0.00 0.00 69 1018.4
20260503002004 47 102 0.0 0.0 0.00 0.00 0.00 71 1018.4
20260503001503 47 102 0.0 2.0 0.00 0.00 0.00 71 1018.4
20260503001002 47 102 1.0 2.0 0.00 0.00 0.00 69 1018.5
20260503000503 48 110 0.0 1.0 0.00 0.00 0.00 69 1018.5
20260503000007 48 110 2.0 2.0 0.00 0.00 0.00 66 1018.5
20260502235504 48 110 1.0 1.0 0.00 0.00 0.00 70 1018.6
20260502235004 48 114 0.0 0.0 0.00 0.00 0.00 68 1018.6
20260502234504 49 114 0.0 0.0 0.00 0.00 0.00 66 1018.6
20260502234003 49 114 0.0 0.0 0.00 0.00 0.00 62 1018.5
20260502233503 50 114 0.0 0.0 0.00 0.00 0.00 63 1018.5
20260502233002 49 114 0.0 0.0 0.00 0.00 0.00 64 1018.6
20260502232503 50 114 0.0 1.0 0.00 0.00 0.00 63 1018.6